This demonstration page uses our WeatherBlox Daily Observations layout. Learn more.

Left ArrowRight Arrow

39.51506, -84.39828

Hourly Observations for June 9, 2017

Temp ( °F °C ) Dew Point ( °F °C ) Humidity (%) Winds ( mph kmh ) Pressure ( in mb ) Visibility ( mi km ) Precip ( " mm )
12:15 am 00:15 Clear 57 13.8 51 10.4 80 80 N N/A 29.91 1013 10 16 N/A
12:35 am 00:35 Clear 57 13.8 50 10.2 79 79 N N/A 29.91 1013 10 16 N/A
12:55 am 00:55 Clear 55 12.5 49 9.3 81 81 N N/A 29.91 1013 10 16 N/A
1:15 am 01:15 Clear 55 12.5 49 9.5 82 82 N N/A 29.91 1013 10 16 N/A
1:35 am 01:35 Clear 55 12.5 49 9.3 81 81 N N/A 29.91 1013 10 16 N/A
1:55 am 01:55 Clear 55 12.5 49 9.5 82 82 N N/A 29.91 1013 10 16 N/A
2:15 am 02:15 Clear 55 12.5 49 9.5 82 82 N N/A 29.91 1013 10 16 N/A
2:35 am 02:35 Clear 53 11.4 47 8.5 83 83 N N/A 29.91 1013 10 16 N/A
2:55 am 02:55 Clear 55 12.5 49 9.5 82 82 N N/A 29.91 1013 10 16 N/A
3:15 am 03:15 Hazy 53 11.9 48 9.1 83 83 N N/A 29.91 1013 4 6 N/A
3:35 am 03:35 Hazy 54 12.2 49 9.5 84 84 N N/A 29.91 1013 4 6 N/A
3:55 am 03:55 Clear 53 11.5 48 8.9 84 84 N N/A 29.91 1013 10 16 N/A
4:15 am 04:15 Clear 55 12.5 50 10 85 85 N N/A 29.91 1013 7 11 N/A
4:35 am 04:35 Clear 52 11 47 8.5 85 85 N N/A 29.91 1013 7 11 N/A
4:55 am 04:55 Hazy 52 11 47 8.5 85 85 N N/A 29.91 1013 2 3 N/A
5:15 am 05:15 Mostly Cloudy with Haze 54 12 49 9.5 85 85 N N/A 29.91 1013 1 1 N/A
5:35 am 05:35 Mostly Cloudy with Mist and Fog 52 11.1 47 8.6 85 85 N N/A 29.91 1013 1 2 N/A
5:55 am 05:55 Mostly Cloudy with Fog 50 10.1 46 7.6 85 85 N N/A 29.91 1013 0 0 N/A
6:15 am 06:15 Mostly Cloudy with Haze 52 11 47 8.5 85 85 N N/A 29.91 1013 5 8 N/A
6:30 am 06:30 Mostly Cloudy with Haze 52 11 47 8.5 85 85 N N/A 29.91 1013 1 1 N/A
6:55 am 06:55 Sunny with Mist and Fog 55 12.5 50 10 85 85 N N/A 29.94 1014 2 3 N/A
7:15 am 07:15 Sunny 55 12.5 50 10 85 85 N N/A 29.94 1014 10 16 N/A
7:35 am 07:35 Sunny 57 13.8 52 11.3 85 85 S 3 6 29.94 1014 10 16 N/A
7:55 am 07:55 Sunny 59 15 54 12.4 85 85 SSW 3 6 29.91 1013 10 16 N/A
8:15 am 08:15 Sunny 60 15.3 54 12.2 82 82 SSW 5 7 29.91 1013 10 16 N/A
8:35 am 08:35 Sunny 62 16.7 53 11.7 73 73 S 5 7 29.91 1013 10 16 N/A
8:55 am 08:55 Sunny 64 18 53 11.7 67 67 S 6 9 29.91 1013 10 16 N/A
9:15 am 09:15 Sunny 69 20.8 56 13.1 62 62 SSW 6 9 29.94 1014 10 16 N/A
9:35 am 09:35 Sunny 69 20.8 55 12.6 60 60 SSW 7 11 29.94 1014 10 16 N/A
9:55 am 09:55 Sunny 69 20.8 53 11.6 56 56 SSW 7 11 29.94 1014 10 16 N/A
10:15 am 10:15 Sunny 71 21.6 53 11.6 53 53 SW 8 13 29.94 1014 10 16 N/A
10:35 am 10:35 Sunny 74 23.6 56 13.1 52 52 SSW 7 11 29.91 1013 10 16 N/A
10:55 am 10:55 Sunny 74 23.6 52 11.2 46 46 SW 10 17 29.91 1013 10 16 N/A
11:15 am 11:15 Sunny 74 23.6 51 10.5 44 44 SSW 9 15 29.91 1013 10 16 N/A
11:35 am 11:35 Sunny 77 24.8 53 11.8 44 44 SSW 8 13 29.94 1014 10 16 N/A
11:55 am 11:55 Sunny 77 25.1 50 10.2 39 39 WSW 8 13 29.94 1014 10 16 N/A
12:15 pm 12:15 Sunny 77 25.1 48 9.1 36 36 WSW 9 15 29.94 1014 10 16 N/A
12:35 pm 12:35 Sunny 79 26.3 47 8.4 32 32 SSW 10 17 29.91 1013 10 16 N/A
12:55 pm 12:55 Sunny 80 26.5 45 7.3 30 30 SSW 10 17 29.91 1013 10 16 N/A
1:15 pm 13:15 Sunny 80 26.5 47 8.1 31 31 SW 13 20 29.91 1013 10 16 N/A
1:35 pm 13:35 Sunny 80 26.5 47 8.2 31 31 SSW 9 15 29.91 1013 10 16 N/A
1:55 pm 13:55 Sunny 80 26.6 45 7.4 30 30 SSW 9 15 29.91 1013 10 16 N/A
2:15 pm 14:15 Sunny 81 27.2 45 7 28 28 SW 9 15 29.91 1013 10 16 N/A
2:35 pm 14:35 Sunny 81 27.2 45 7.1 28 28 SSW 9 15 29.91 1013 10 16 N/A
2:55 pm 14:55 Sunny 82 27.7 46 7.9 29 29 SW 12 19 29.85 1011 10 16 N/A
3:15 pm 15:15 Sunny 82 28 45 7.2 27 27 SW 12 19 29.85 1011 10 16 N/A
3:35 pm 15:35 Sunny 82 27.7 41 5.2 24 24 WSW 12 19 29.85 1011 10 16 N/A
3:55 pm 15:55 Sunny 82 28 45 7.4 27 27 SW 15 24 29.85 1011 10 16 N/A
4:15 pm 16:15 Sunny 82 28 44 6.7 26 26 SSW 15 24 29.85 1011 10 16 N/A
4:35 pm 16:35 Sunny 82 27.7 43 6.2 26 26 SW 13 20 29.85 1011 10 16 N/A
4:55 pm 16:55 Sunny 82 28 43 6 25 25 WSW 12 19 29.85 1011 10 16 N/A
5:15 pm 17:15 Sunny 82 28 44 6.5 26 26 SW 12 19 29.83 1010 10 16 N/A
5:35 pm 17:35 Sunny 82 28 43 6.1 25 25 WSW 10 17 29.83 1010 10 16 N/A
5:55 pm 17:55 Sunny 82 28 42 5.6 24 24 SW 14 22 29.83 1010 10 16 N/A
6:15 pm 18:15 Sunny 82 27.9 44 6.6 26 26 SW 13 20 29.83 1010 10 16 N/A
6:35 pm 18:35 Sunny 82 27.8 44 6.7 26 26 SSW 13 20 29.83 1010 10 16 N/A
6:55 pm 18:55 Sunny 81 27.2 43 5.9 26 26 SW 15 24 29.83 1010 10 16 N/A
7:15 pm 19:15 Sunny 81 27.1 45 7.1 28 28 SSW 13 20 29.83 1010 10 16 N/A
7:35 pm 19:35 Sunny 80 26.5 45 7.3 30 30 SSW 12 19 29.85 1011 10 16 N/A
7:55 pm 19:55 Sunny 80 26.5 46 7.8 31 31 SSW 10 17 29.85 1011 10 16 N/A
8:15 pm 20:15 Sunny 80 26.5 46 8 31 31 SSW 8 13 29.88 1012 10 16 N/A
8:35 pm 20:35 Sunny 77 25.1 47 8.5 35 35 SSW 8 13 29.88 1012 10 16 N/A
8:55 pm 20:55 Sunny 74 23.6 49 9.3 40 40 SSW 7 11 29.88 1012 10 16 N/A
9:15 pm 21:15 Clear 74 23.6 53 11.9 48 48 SW 7 11 29.88 1012 10 16 N/A
9:35 pm 21:35 Clear 73 22.6 53 11.4 49 49 SSW 7 11 29.88 1012 10 16 N/A
9:55 pm 21:55 Clear 71 21.6 52 10.9 51 51 SSW 5 7 29.88 1012 10 16 N/A
10:15 pm 22:15 Clear 69 20.8 53 11.7 56 56 SSW 5 7 29.91 1013 10 16 N/A
10:35 pm 22:35 Clear 69 20.8 56 13.4 63 63 SW 5 7 29.91 1013 10 16 N/A
10:55 pm 22:55 Clear 64 18 54 12 68 68 SSW 5 7 29.91 1013 10 16 N/A
11:15 pm 23:15 Clear 66 18.8 54 12.4 67 67 SW 6 9 29.91 1013 10 16 N/A
11:35 pm 23:35 Clear 69 20.7 56 13.4 63 63 SSW 6 9 29.91 1013 10 16 N/A
11:55 pm 23:55 Clear 69 20.8 54 12 57 57 SSW 6 9 29.91 1013 10 16 N/A

Powered by AerisWeather